Location: Estes Par
(40.3770°N, 10.0000°W)
Time: 09:06:58
(UTC-06:00)

Hubble Space Telescope - Visible Passes

Search period start: 17 October 2017 00:00
Search period end: 27 October 2017 00:00
Orbit: 537 x 541 km, 28.5° (Epoch: 16 October)

Date Brightness Start Highest point End Pass type
(mag) Time Alt. Az. Time Alt. Az. Time Alt. Az.
21 Oct 3.2 13:32:39 10° S 13:33:35 11° S 13:33:35 11° S visible
22 Oct 3.0 13:21:45 10° SSW 13:23:31 12° S 13:24:01 12° SSE visible
23 Oct 3.0 13:11:07 10° SSW 13:13:12 14° S 13:14:25 12° SSE visible
24 Oct 3.0 13:00:36 10° SSW 13:02:53 15° S 13:04:49 11° SE visible
25 Oct 3.0 12:50:10 10° SSW 12:52:35 15° S 12:55:00 10° SE visible
26 Oct 3.1 12:39:48 10° SW 12:42:16 15° S 12:44:45 10° SE visible
